Location: Lawrence Hall of Science
(37.8785°N, 122.2415°W)
Time: 21:55:39
(UTC-07:00)

Cosmos 1461 - Visible Passes

Search period start: 23 July 2016 00:00
Search period end: 02 August 2016 00:00
Orbit: 515 x 661 km, 65.0° (Epoch: 23 July)

Date Brightness Start Highest point End Pass type
(mag) Time Alt. Az. Time Alt. Az. Time Alt. Az.
23 Jul 4.7 21:34:05 10° SW 21:38:29 39° NW 21:42:47 10° NNE visible
24 Jul 5.7 21:42:11 10° WSW 21:46:02 25° NW 21:49:48 10° N visible
25 Jul 6.2 04:30:24 10° N 04:32:57 16° NE 04:35:26 10° E visible
25 Jul 6.4 21:50:45 10° W 21:53:40 16° NW 21:56:32 10° N visible
26 Jul 5.3 04:37:08 10° N 04:40:34 25° NE 04:43:54 10° ESE visible
26 Jul 6.8 22:00:29 10° NW 22:01:23 10° NW 22:02:18 10° NNW visible
27 Jul 4.2 04:44:11 10° NNW 04:48:07 42° NE 04:51:53 10° SE visible
28 Jul 2.9 04:51:26 10° NNW 04:55:33 77° ENE 04:59:29 10° SE visible
29 Jul 6.0 03:21:04 10° NNE 03:23:19 14° NE 03:25:32 10° ENE visible
29 Jul 2.8 04:58:53 10° NW 05:02:54 56° WSW 05:06:45 10° SSE visible
29 Jul 6.2 20:40:54 10° W 20:44:03 18° NW 20:47:09 10° N visible
30 Jul 5.3 03:27:41 10° N 03:30:58 22° NE 03:34:09 10° ESE visible
30 Jul 3.5 05:06:37 10° NW 05:10:10 29° WSW 05:13:36 10° S visible
30 Jul 6.6 20:50:11 10° WNW 20:51:45 12° NW 20:53:19 10° NNW visible
31 Jul 4.2 03:34:40 10° NNW 03:38:31 37° NE 03:42:12 10° ESE visible
31 Jul 4.3 05:14:48 10° WNW 05:17:20 16° WSW 05:19:01 13° SW visible
01 Aug 3.0 03:41:53 10° NNW 03:45:58 67° ENE 03:46:15 64° E visible
